Chillicothe, MO

6:17 PM CDT on October 21, 2019 (GMT -0500)
Chillicothe

Weather History for KCDJ - August, 2019

Change the Weather History Date:

Friday, August 2, 2019

  Actual Average (KIRK) Record (KIRK)
Temperature  
Mean Temperature 72 °F -  
Max Temperature 82 °F 85 °F 104 °F (1934)
Min Temperature 62 °F 63 °F 52 °F (1985)
Cooling Degree Days 7    
Growing Degree Days 22 (Base 50)    
Moisture  
Dew Point 63 °F    
Average Humidity 71    
Maximum Humidity 93    
Minimum Humidity 50    
Precipitation  
Precipitation 0.00 in - - ()
Sea Level Pressure  
Sea Level Pressure 30.08 in    
Wind  
Wind Speed 3 mph (ESE)    
Max Wind Speed 10 mph    
Max Gust Speed 17 mph    
Averages and records for this station are not official NWS values.
T = Trace of Precipitation, MM = Missing Value Source: NWS Daily Summary

Daily Weather History Graph

Daily Weather History Graph

Search for Another Location

Airport or City:

Astronomy

Aug. 02, 2019 Rise Set
Actual Time 6:13 AM CDT 8:26 PM CDT
Civil Twilight 5:43 AM CDT 8:56 PM CDT
Nautical Twilight 5:06 AM CDT 9:33 PM CDT
Astronomical Twilight 4:26 AM CDT 10:13 PM CDT
Moon 7:53 AM CDT (8/2) 9:55 PM CDT (8/2)
Length of Visible Light 15h 12m
Length of Day
14h 12m
Waxing Crescent, 4% of the Moon is Illuminated
Aug 2
Waxing Crescent
Aug 7
First Quarter
Aug 15
Full
Aug 23
Last Quarter
Aug 30
New

Hourly Weather History & Observations

Time (CDT) Temp. Heat Index Dew Point Humidity Pressure Visibility Wind Dir Wind Speed Gust Speed Precip Events Conditions
12:52 AM 70.0 °F - 61.0 °F 73% 30.12 in - East 3.5 mph - N/A   Unknown
1:52 AM 70.0 °F - 60.1 °F 71% 30.12 in - ESE 3.5 mph - N/A   Unknown
2:52 AM 68.0 °F - 60.1 °F 76% 30.11 in - Calm Calm - N/A   Unknown
3:52 AM 64.0 °F - 61.0 °F 90% 30.09 in - Calm Calm - N/A   Unknown
4:52 AM 62.1 °F - 60.1 °F 93% 30.10 in - Calm Calm - N/A   Unknown
5:52 AM 62.1 °F - 60.1 °F 93% 30.11 in - Calm Calm - N/A   Unknown
6:52 AM 64.9 °F - 60.1 °F 84% 30.12 in - Calm Calm - N/A   Unknown
7:52 AM 69.1 °F - 61.0 °F 75% 30.13 in - ESE 3.5 mph - N/A   Unknown
8:52 AM 72.0 °F - 63.0 °F 73% 30.12 in - Variable 6.9 mph - N/A   Unknown
9:52 AM 75.0 °F - 63.0 °F 66% 30.11 in - Variable 6.9 mph - N/A   Unknown
10:52 AM 77.0 °F - 63.0 °F 62% 30.10 in - ESE 6.9 mph - N/A   Unknown
11:52 AM 78.1 °F - 63.0 °F 60% 30.09 in - ESE 6.9 mph - N/A   Unknown
12:52 PM 80.1 °F 81.5 °F 63.0 °F 56% 30.08 in - Variable 6.9 mph - N/A   Unknown
1:52 PM 81.0 °F 81.7 °F 61.0 °F 50% 30.05 in - ESE 8.1 mph - N/A   Unknown
2:52 PM 82.0 °F 83.4 °F 64.0 °F 54% 30.04 in - Variable 4.6 mph - N/A   Unknown
3:52 PM 82.0 °F 83.1 °F 63.0 °F 52% 30.05 in - SSE 10.4 mph 17.3 mph N/A   Unknown
5:52 PM 80.1 °F 81.7 °F 64.0 °F 58% 30.04 in - Variable 3.5 mph - N/A   Unknown
6:52 PM 80.1 °F 81.9 °F 64.9 °F 60% 30.03 in - East 3.5 mph - N/A   Unknown
7:52 PM 78.1 °F - 66.0 °F 66% 30.03 in - ENE 3.5 mph - N/A   Unknown
8:52 PM 75.9 °F - 64.9 °F 69% 30.03 in - Calm Calm - N/A   Unknown
9:52 PM 69.1 °F - 66.9 °F 93% 30.05 in - Calm Calm - N/A   Unknown
10:52 PM 68.0 °F - 66.0 °F 93% 30.05 in - Calm Calm - N/A   Unknown